Tracking 17842 objects as of 31-August-2016
HD Live streaming from Space Station
objects crossing your sky now

INTELSAT 605

Track INTELSAT 605 now!
INTELSAT 605 is classified as:


NORAD ID: 21653
Int'l Code: 1991-055A
Perigee: 36,040.9 km
Apogee: 36,083.3 km
Inclination: 9.7 °
Period: 1,449.8 minutes
Semi major axis: 42433 km
RCS: 0.754 m2 (medium)
Launch date: August 14, 1991
Source: International Telecommunications Satellite Organization (ITSO)
Launch site: FRENCH GUIANA (FRGUI)

Inclined orbit; 64 C-band, 24 Ku-band; Broadcasting, business services, direct-to-home TV broadcasting, telecommunications, VSAT networks; Atlantic Ocean region.
Your satellite tracking list
Your tracking list is empty





NASA's NSSDC Master Catalog

Two Line Element Set (TLE):
1 21653U 91055A   16243.16420221  .00000066  00000-0  00000+0 0  9992
2 21653   9.7242  43.5558 0004996 168.2198 244.1354  0.99322053 91439
Source of the keplerian elements: AFSPC

N2YO: 550